Temp
21 21 20 19 19 20 19 19 20 20 21 20 21 20 21 21 21 20 17 16 18 18 20 19 18 19 18 17 15 18 18 17
21 19 19 18 18 19 20 19 19 19 21 21 21 21 21 20 21 20 18 16 17 18 19 18 16 18 17 16 17 19 19 19
20 18 16 16 17 18 19 19 20 20 21 22 21 21 21 21 20 19 18 17 16 18 19 18 15 17 17 16 18 19 18 17
17 16 14 14 14 18 19 20 20 20 21 22 21 20 20 20 20 19 19 17 16 17 18 18 16 17 16 15 18 18 17 15
13 12 11 10 11 12 16 19 19 20 20 22 22 20 20 20 20 19 19 18 16 16 17 18 16 17 17 15 18 18 19 16
9 8 8 7 7 9 11 18 19 19 20 20 22 21 20 21 20 20 19 17 16 15 16 16 16 16 17 17 16 18 18 19
7 5 5 5 5 6 9 17 18 19 19 20 21 21 21 22 20 19 19 18 16 15 15 16 16 16 16 16 16 17 19 18
6 5 3 4 4 5 7 15 18 19 19 20 21 21 20 21 21 20 19 18 16 16 15 15 16 16 16 16 15 16 17 18
6 4 2 3 3 3 5 8 18 19 20 20 21 21 22 22 23 22 20 18 16 16 16 15 16 16 16 15 16 15 17 17
5 3 1 3 2 3 4 5 11 20 20 20 21 21 22 22 22 22 21 19 17 16 16 15 16 16 16 16 16 16 16 17
4 3 1 2 2 2 2 3 5 10 16 21 21 21 21 21 21 21 21 20 18 17 16 16 16 16 16 16 16 16 16 16
3 2 0 1 1 1 1 2 4 6 7 10 16 19 21 21 20 20 19 18 18 17 16 16 16 16 16 16 16 16 16 15
3 1 -0 0 1 1 1 1 2 4 5 6 8 11 14 15 17 18 18 19 18 16 16 16 16 15 15 16 16 16 15 15
3 1 -0 -0 -0 -0 0 1 1 2 4 4 4 7 9 11 13 15 16 16 16 16 16 15 15 15 15 15 16 15 15 15
2 0 -0 -1 -1 -1 -0 0 0 1 2 3 3 4 5 8 10 13 14 15 15 15 15 15 15 15 15 15 15 15 15 15
2 0 -0 -1 -1 -1 -1 -0 -0 0 1 2 1 3 3 5 7 11 12 13 14 15 15 14 15 16 15 15 15 15 15 14
2 1 -0 -1 -1 -1 -1 -1 -0 -0 -0 -0 0 1 3 2 4 5 9 10 12 13 14 14 14 14 14 14 15 14 14 14
2 1 0 -0 -1 -1 -1 -0 -0 -0 -1 -1 -1 0 1 0 2 3 5 7 7 9 11 12 12 13 13 14 14 14 14 13
3 2 1 0 -0 -0 -1 -0 0 0 0 -0 -1 -1 -0 -0 0 1 2 3 4 5 7 8 9 8 10 12 12 13 13 12
Height
759 756 750 745 743 740 737 734 733 730 730 733 735 738 742 743 746 750 753 758 765 771 774 776 780 785 790 794 797 800 803 806
754 752 750 746 732 727 723 722 722 725 719 717 720 722 730 735 736 742 748 750 758 762 767 771 773 778 783 789 793 796 799 803
747 749 747 738 728 717 710 711 709 711 713 708 709 711 715 723 729 732 737 741 747 754 758 763 766 772 777 782 787 791 796 798
748 746 743 734 722 709 702 696 698 698 700 700 701 706 710 714 715 721 725 734 736 745 751 755 760 766 769 774 780 785 790 795
759 752 739 734 721 708 692 684 686 688 692 690 690 692 693 698 706 711 714 723 730 733 744 749 752 759 763 767 773 778 783 788
759 749 739 727 715 705 688 672 674 677 680 684 683 684 688 690 691 707 707 714 722 727 735 741 745 750 757 760 766 771 776 778
760 751 740 726 712 698 681 662 661 667 669 673 673 674 680 683 697 696 695 704 711 719 728 732 736 741 747 753 758 763 768 773
757 749 738 725 713 698 681 656 652 657 659 663 664 666 673 677 677 677 689 696 705 708 716 723 726 731 738 746 752 756 761 766
762 755 743 729 714 698 679 661 647 648 650 654 657 660 662 663 665 666 683 691 696 699 707 715 721 726 732 738 746 750 755 759
764 754 744 731 717 703 684 664 651 641 644 649 652 654 656 657 662 671 678 688 692 695 700 707 713 719 726 732 739 743 748 752
767 755 743 730 716 697 678 667 662 653 643 644 647 650 653 659 665 669 676 681 684 690 696 703 709 714 720 725 732 738 743 745
772 760 748 738 723 708 694 683 673 661 654 651 649 650 653 657 661 666 671 676 681 686 692 698 703 709 713 719 726 732 736 740
776 767 756 743 728 716 703 691 680 674 669 659 655 655 657 658 660 664 669 672 677 683 688 692 698 706 709 713 721 725 729 733
778 771 761 749 740 731 718 706 694 685 679 672 668 666 664 662 663 665 668 671 676 681 685 689 693 700 706 709 717 723 723 726
782 775 766 754 752 742 729 717 708 700 693 685 682 678 673 673 671 670 670 673 677 680 685 687 690 696 700 706 707 718 721 721
785 781 772 760 754 748 740 727 717 709 702 696 693 686 684 684 680 676 675 677 679 682 684 685 688 689 694 696 703 709 716 718
785 782 776 766 757 749 737 732 726 721 710 704 701 691 683 689 681 677 673 679 678 678 679 682 684 690 694 695 694 705 711 713
785 781 775 766 756 751 745 737 726 715 719 719 705 684 692 689 689 684 677 679 681 684 679 682 684 684 688 691 698 700 704 709
786 782 779 774 767 759 753 747 740 740 731 722 712 714 708 700 698 694 690 686 683 681 682 683 685 688 687 692 690 694 696 704
Wind_Speed
26 30 36 44 39 35 36 33 32 30 29 31 33 34 33 31 31 30 29 36 31 28 24 24 25 24 23 21 18 20 18 16
30 35 35 46 48 41 38 37 34 33 33 33 34 35 34 34 33 30 30 32 33 32 28 26 27 27 25 23 21 22 20 19
29 34 43 43 41 44 43 38 36 34 35 34 36 36 36 35 32 32 33 33 37 35 33 30 29 26 26 25 23 22 19 21
28 33 41 39 46 38 41 40 39 35 35 36 34 30 28 31 34 35 35 35 38 38 36 32 29 28 28 29 28 26 20 22
27 30 37 36 39 45 44 42 38 35 35 35 36 32 31 32 34 34 36 36 37 42 36 34 32 31 28 31 30 29 26 20
28 27 38 40 40 44 45 37 36 36 35 38 35 36 33 43 26 33 33 34 35 38 40 36 34 32 30 31 31 31 29 23
24 35 38 39 44 44 46 34 33 36 35 37 38 37 34 29 43 33 31 31 37 38 38 39 38 35 34 33 32 31 29 27
25 26 29 38 42 43 39 29 30 34 32 37 39 38 38 38 33 30 28 29 33 38 41 40 40 39 36 33 33 30 31 28
26 24 31 36 41 42 39 35 23 26 30 34 36 38 33 31 26 21 29 31 35 37 40 39 38 36 35 35 32 31 31 31
28 28 35 37 41 39 37 38 31 15 25 27 31 33 30 28 27 30 28 32 31 32 38 38 39 37 36 35 31 31 30 30
24 24 37 39 46 45 46 44 34 26 13 16 23 25 26 25 27 28 30 28 26 27 32 35 34 34 34 36 32 28 29 30
21 24 38 37 45 45 42 40 37 34 33 22 9 10 18 22 21 23 22 20 22 25 31 34 34 35 36 34 31 27 27 27
22 27 33 35 43 45 42 42 39 35 31 30 30 23 15 10 7 15 18 20 23 24 28 30 29 30 29 29 28 26 27 27
21 23 26 32 37 39 37 37 37 35 31 31 30 25 24 20 15 5 12 18 20 20 23 23 25 25 26 30 26 25 29 30
18 18 23 30 30 32 33 35 34 32 29 28 27 25 22 18 16 10 6 8 15 15 17 18 18 21 24 26 26 25 25 29
18 17 17 28 30 30 27 30 33 32 31 29 26 23 23 17 15 13 8 2 8 14 16 15 18 18 20 24 24 23 22 24
19 17 21 24 27 31 35 31 30 25 32 33 28 27 34 26 22 16 13 10 6 3 8 11 13 18 23 26 22 25 20 17
19 17 22 27 31 31 30 31 33 36 28 23 28 38 32 31 25 20 19 14 12 10 10 5 5 8 14 24 34 26 23 17
19 23 25 26 27 29 26 26 25 21 23 26 28 21 22 26 24 22 20 17 14 14 14 15 12 8 8 18 16 21 18 13
Wind_Direction
319 318 320 322 304 285 272 264 258 247 236 228 223 221 220 213 208 208 203 202 200 201 201 192 188 190 193 195 192 192 198 194
319 324 320 315 303 287 264 261 258 251 238 220 215 213 212 214 210 207 206 202 200 198 201 197 190 193 194 194 193 197 201 195
326 330 323 319 297 284 276 253 252 248 242 228 217 212 206 211 208 206 205 202 199 199 198 198 192 192 193 193 194 196 199 181
337 327 324 323 317 298 278 259 251 244 236 232 221 217 213 206 207 207 202 205 197 200 200 197 196 197 194 192 195 196 189 198
335 327 318 331 320 310 295 264 244 243 236 236 218 205 202 211 207 207 201 203 202 200 201 199 196 198 199 197 196 200 202 196
334 335 332 328 327 319 307 269 242 242 231 236 222 215 206 210 202 211 198 199 202 200 200 198 196 198 201 198 195 200 205 204
334 341 332 332 332 324 321 269 239 239 227 229 220 215 207 205 205 197 198 196 197 201 200 201 200 200 200 199 196 199 204 209
348 341 332 338 333 327 326 301 241 235 224 224 214 215 212 204 192 187 196 195 197 196 200 201 201 201 200 199 198 198 203 206
348 340 334 340 336 333 335 339 245 234 220 218 216 216 212 215 209 193 204 205 204 196 199 202 201 200 200 197 199 201 202 208
347 343 340 342 341 338 342 353 359 237 225 225 218 213 212 207 208 207 208 212 207 199 198 202 201 198 198 195 199 202 204 205
346 345 343 343 346 345 354 1 358 5 4 211 206 207 209 210 210 206 211 214 201 195 198 202 199 199 196 194 200 206 206 204
349 345 344 342 351 351 354 359 0 11 15 24 36 225 212 210 209 210 210 201 194 196 199 201 202 201 197 194 199 202 205 205
352 350 346 346 355 348 352 357 3 9 14 23 33 45 66 76 188 204 213 213 203 195 196 197 197 199 194 192 198 201 201 202
351 352 348 349 351 344 350 357 3 6 12 24 24 26 38 46 57 92 188 180 183 191 194 191 188 192 197 198 204 211 203 206
353 350 346 346 343 342 348 358 4 7 14 19 20 23 25 24 29 43 78 173 176 179 182 185 183 196 199 204 202 216 209 203
355 351 343 342 345 345 352 360 2 5 17 19 10 25 27 21 32 41 39 80 198 190 186 190 199 207 219 211 209 205 205 202
352 350 344 345 346 347 357 358 2 6 18 9 3 22 23 7 21 30 48 37 41 209 211 213 207 215 216 213 216 206 199 197
351 352 350 346 348 350 354 356 3 12 7 0 9 26 13 5 14 15 31 26 43 69 88 121 163 209 233 232 218 196 192 197
350 349 351 350 348 352 358 3 8 7 5 5 16 19 16 12 10 13 27 31 37 47 63 87 111 92 186 213 189 178 176 181